FW5359 Weather Reports


time (UTC)temp
F
wind
direction
speed
knots
gust
knots
rain 1hr
in
rain 24hr
in
rain mn
in
humidity
%
barometer
mb
20260904095854 79 222 0.9 4.3 0.00 0.00 0.00 84 1014.3
20260904095123 79 208 1.7 5.2 0.00 0.00 0.00 84 1014.3
20260904094623 79 355 0.9 5.2 0.00 0.00 0.00 84 1014.4
20260904094353 79 169 0.9 5.2 0.00 0.00 0.00 84 1014.3
20260904093622 79 227 1.7 8.7 0.00 0.00 0.00 84 1014.3
20260904093122 79 208 2.6 8.7 0.00 0.00 0.00 84 1014.3
20260904092621 79 205 2.6 6.1 0.00 0.00 0.00 84 1014.3
20260904092115 79 173 1.7 6.1 0.00 0.00 0.00 83 1014.3
20260904091609 79 176 2.6 6.1 0.00 0.00 0.00 83 1014.3
20260904091103 79 239 1.7 7.8 0.00 0.00 0.00 83 1014.3
20260904090556 79 194 1.7 7.8 0.00 0.00 0.00 83 1014.4
20260904090050 79 180 1.7 5.2 0.00 0.00 0.00 84 1014.3
20260904085545 79 239 1.7 5.2 0.00 0.00 0.00 83 1014.4
20260904085038 79 201 1.7 6.1 0.00 0.00 0.00 84 1014.3
20260904084533 79 165 1.7 6.1 0.00 0.00 0.00 83 1014.3
20260904084257 79 187 1.7 6.1 0.00 0.00 0.00 83 1014.5
20260904083014 79 123 2.6 7.0 0.00 0.00 0.00 83 1014.4
20260904082738 79 225 1.7 7.0 0.00 0.00 0.00 83 1014.4
20260904082231 79 269 0.9 6.1 0.00 0.00 0.00 83 1014.4
20260904081455 79 202 0.9 4.3 0.00 0.00 0.00 83 1014.5
20260904081219 79 169 0.9 7.0 0.00 0.00 0.00 83 1014.5
20260904080443 79 180 0.9 7.0 0.00 0.00 0.00 83 1014.5
20260904075937 79 192 0.9 6.1 0.00 0.00 0.00 83 1014.6
20260904075431 79 155 1.7 6.1 0.00 0.00 0.00 83 1014.5
20260904074925 79 150 1.7 6.1 0.00 0.00 0.00 83 1014.6
20260904074650 80 218 0.9 5.2 0.00 0.00 0.00 82 1014.7
20260904073914 80 157 0.9 5.2 0.00 0.00 0.00 82 1014.7
20260904073407 80 149 0.9 4.3 0.00 0.00 0.00 82 1014.7
20260904072901 80 147 0.9 6.1 0.00 0.00 0.00 82 1014.9
20260904072626 80 165 1.7 6.1 0.00 0.00 0.00 82 1014.9
20260904071848 80 166 0.9 5.2 0.00 0.00 0.00 82 1015.0
20260904071343 80 165 1.7 7.0 0.00 0.00 0.00 82 1015.0
20260904070836 80 158 1.7 7.0 0.00 0.00 0.00 82 1015.2
20260904070331 80 148 0.9 6.1 0.00 0.00 0.00 82 1015.2
20260904065825 80 161 0.9 5.2 0.00 0.00 0.00 81 1015.2
20260904065319 80 159 1.7 7.0 0.00 0.00 0.00 81 1015.0
20260904065045 80 146 1.7 7.0 0.00 0.00 0.00 81 1014.9
20260904064307 80 184 1.7 7.0 0.00 0.00 0.00 81 1015.0
20260904064032 80 189 1.7 7.0 0.00 0.00 0.00 81 1015.2
20260904063255 80 240 1.7 7.0 0.00 0.00 0.00 81 1015.0
20260904062749 80 265 0.9 7.0 0.00 0.00 0.00 81 1015.0
20260904062242 80 163 1.7 7.0 0.00 0.00 0.00 80 1015.2
20260904061737 80 144 2.6 7.0 0.00 0.00 0.00 80 1015.2
20260904061233 80 147 2.6 10.4 0.00 0.00 0.00 80 1015.2
20260904060726 80 157 3.5 10.4 0.00 0.00 0.00 80 1015.0
20260904060452 80 122 2.6 10.4 0.00 0.00 0.00 80 1015.0
20260904055715 80 161 1.7 9.6 0.00 0.00 0.00 80 1015.3
20260904055437 81 184 2.6 8.7 0.00 0.00 0.00 79 1015.2
20260904054701 81 254 3.5 9.6 0.00 0.00 0.00 79 1015.0
20260904054155 81 190 3.5 9.6 0.00 0.00 0.00 79 1015.0
20260904053649 81 149 2.6 8.7 0.00 0.00 0.00 78 1015.0
20260904053143 81 150 1.7 7.0 0.00 0.00 0.00 78 1015.2
20260904052637 81 186 2.6 7.8 0.00 0.00 0.00 78 1015.3
20260904052131 81 178 3.5 7.8 0.00 0.00 0.00 78 1015.2
20260904051855 81 174 3.5 13.0 0.00 0.00 0.00 77 1015.2
20260904051119 81 315 3.5 13.0 0.00 0.00 0.00 77 1015.0
20260904050613 81 175 2.6 9.6 0.00 0.00 0.00 77 1015.2
20260904050107 82 173 3.5 9.6 0.00 0.00 0.00 77 1015.2
20260904045600 82 147 3.5 8.7 0.00 0.00 0.00 77 1015.2
20260904045054 82 169 4.3 10.4 0.00 0.00 0.00 76 1014.9
20260904044548 82 157 3.5 10.4 0.00 0.00 0.00 75 1015.0
20260904044041 82 107 2.6 7.8 0.00 0.00 0.00 75 1014.9
20260904043535 82 157 2.6 9.6 0.00 0.00 0.00 74 1014.8
20260904043030 83 165 3.5 9.6 0.00 0.00 0.00 73 1014.6
20260904042524 83 159 3.5 12.2 0.00 0.00 0.00 71 1014.5
20260904042018 83 127 2.6 9.6 0.00 0.00 0.00 70 1014.4
20260904041511 84 140 2.6 9.6 0.00 0.00 0.00 69 1014.5
20260904041004 84 86 3.5 7.8 0.00 0.00 0.00 68 1014.4
20260904040457 84 123 3.5 7.8 0.00 0.00 0.00 67 1014.5
20260904035952 84 224 2.6 11.3 0.00 0.00 0.00 65 1014.6
20260904035446 85 178 2.6 11.3 0.00 0.00 0.00 65 1014.7
20260904034940 85 125 3.5 9.6 0.00 0.00 0.00 64 1014.6
20260904034434 85 146 3.5 9.6 0.00 0.00 0.00 64 1014.7
20260904034159 85 155 3.5 9.6 0.00 0.00 0.00 64 1014.5
20260904033422 85 163 3.5 9.6 0.00 0.00 0.00 64 1014.6
20260904032915 85 194 4.3 11.3 0.00 0.00 0.00 64 1014.5
20260904032409 85 156 4.3 11.3 0.00 0.00 0.00 63 1014.5
20260904031358 86 121 2.6 7.8 0.00 0.00 0.00 63 1014.3
20260904030852 86 126 1.7 7.0 0.00 0.00 0.00 63 1014.1
20260904030347 86 142 1.7 5.2 0.00 0.00 0.00 63 1014.2
20260904030110 86 161 1.7 7.0 0.00 0.00 0.00 63 1014.0
20260904025604 86 138 1.7 7.0 0.00 0.00 0.00 63 1013.8
20260904025058 86 126 1.7 7.0 0.00 0.00 0.00 62 1013.8
20260904024322 86 112 2.6 7.0 0.00 0.00 0.00 62 1013.7
20260904023816 86 126 2.6 7.0 0.00 0.00 0.00 62 1013.7
20260904023310 86 126 2.6 7.0 0.00 0.00 0.00 62 1013.7
20260904022805 86 138 2.6 7.8 0.00 0.00 0.00 61 1013.5
20260904022258 86 119 3.5 9.6 0.00 0.00 0.00 61 1013.3
20260904021751 86 126 3.5 9.6 0.00 0.00 0.00 61 1013.2
20260904021246 86 123 2.6 8.7 0.00 0.00 0.00 61 1013.2
20260904021010 87 110 2.6 7.8 0.00 0.00 0.00 61 1013.1
20260904020505 87 81 2.6 8.7 0.00 0.00 0.00 61 1013.0
20260904015727 87 137 2.6 8.7 0.00 0.00 0.00 61 1013.0
20260904015222 87 117 4.3 12.2 0.00 0.00 0.00 61 1012.8
20260904014722 87 139 5.2 12.2 0.00 0.00 0.00 60 1012.8
20260904014452 88 118 4.3 12.2 0.00 0.00 0.00 60 1012.8
20260904013724 88 102 3.5 11.3 0.00 0.00 0.00 60 1012.8
20260904013222 88 138 3.5 11.3 0.00 0.00 0.00 60 1012.8
20260904012722 89 102 4.3 10.4 0.00 0.00 0.00 59 1012.6
20260904012222 89 101 5.2 13.9 0.00 0.00 0.00 58 1012.6
20260904011722 90 149 5.2 13.9 0.00 0.00 0.00 58 1012.6
20260904011452 90 109 4.3 10.4 0.00 0.00 0.00 57 1012.6
20260904010220 91 94 4.3 13.0 0.00 0.00 0.00 55 1012.0
20260904005950 92 114 4.3 13.0 0.00 0.00 0.00 54 1011.9
20260904005220 92 73 5.2 11.3 0.00 0.00 0.00 53 1011.8
20260904004720 92 107 4.3 11.3 0.00 0.00 0.00 52 1011.8
20260904004220 93 134 3.5 11.3 0.00 0.00 0.00 51 1011.7
20260904003720 93 136 3.5 11.3 0.00 0.00 0.00 51 1011.7
20260904003220 93 111 3.5 8.7 0.00 0.00 0.00 50 1011.6
20260904002719 94 105 3.5 9.6 0.00 0.00 0.00 50 1011.5
20260904002217 94 69 3.5 13.9 0.00 0.00 0.00 49 1011.5
20260904001718 95 85 3.5 13.9 0.00 0.00 0.00 48 1011.4
20260904001218 95 94 2.6 8.7 0.00 0.00 0.00 47 1011.4
20260904000717 96 114 2.6 7.0 0.00 0.00 0.00 47 1011.3
20260904000218 96 126 2.6 8.7 0.00 0.00 0.00 46 1011.2
20260903235718 96 107 2.6 8.7 0.00 0.00 0.00 45 1011.2
20260903235218 97 136 2.6 7.0 0.00 0.00 0.00 43 1011.3
20260903234718 97 88 1.7 7.0 0.00 0.00 0.00 43 1011.3
20260903234217 97 62 1.7 7.0 0.00 0.00 0.00 42 1011.2
20260903233718 97 123 2.6 9.6 0.00 0.00 0.00 43 1011.3
20260903233218 97 88 2.6 9.6 0.00 0.00 0.00 43 1011.3
20260903232718 98 64 2.6 6.1 0.00 0.00 0.00 43 1011.2
20260903232218 98 116 1.7 6.1 0.00 0.00 0.00 43 1011.2
20260903231717 98 186 2.6 7.0 0.00 0.00 0.00 43 1011.1
20260903231217 99 111 2.6 7.0 0.00 0.00 0.00 43 1011.2
20260903230718 98 248 1.7 7.0 0.00 0.00 0.00 43 1011.1
20260903230449 98 130 1.7 7.0 0.00 0.00 0.00 42 1011.1
20260903225715 98 133 2.6 8.7 0.00 0.00 0.00 43 1011.1
20260903225209 98 151 2.6 8.7 0.00 0.00 0.00 43 1011.0
20260903224939 98 164 2.6 8.7 0.00 0.00 0.00 43 1011.1
20260903224431 99 111 2.6 8.7 0.00 0.00 0.00 43 1011.0
20260903223700 99 191 2.6 8.7 0.00 0.00 0.00 43 1011.1
20260903223200 99 122 2.6 7.8 0.00 0.00 0.00 43 1011.1
20260903222934 99 174 2.6 8.7 0.00 0.00 0.00 43 1011.0
20260903222200 99 130 1.7 8.7 0.00 0.00 0.00 43 1011.1
20260903221700 99 143 2.6 6.1 0.00 0.00 0.00 44 1011.1
20260903221200 98 164 2.6 5.2 0.00 0.00 0.00 44 1011.2
20260903220700 98 119 1.7 5.2 0.00 0.00 0.00 45 1011.2
20260903215658 98 176 2.6 7.0 0.00 0.00 0.00 43 1011.4
20260903215158 98 134 2.6 7.0 0.00 0.00 0.00 43 1011.4
20260903214657 98 98 2.6 7.0 0.00 0.00 0.00 43 1011.5
20260903214157 99 131 2.6 7.0 0.00 0.00 0.00 43 1011.5
20260903213658 99 126 2.6 6.1 0.00 0.00 0.00 43 1011.5
20260903213156 99 96 1.7 7.8 0.00 0.00 0.00 43 1011.5
20260903212656 99 60 1.7 8.7 0.00 0.00 0.00 43 1011.6
20260903212154 99 116 1.7 8.7 0.00 0.00 0.00 43 1011.8
20260903211919 99 155 0.9 7.0 0.00 0.00 0.00 43 1011.8
20260903211415 98 155 1.7 7.0 0.00 0.00 0.00 44 1011.8
20260903210637 98 157 2.6 7.8 0.00 0.00 0.00 44 1011.9
20260903210130 98 133 3.5 7.8 0.00 0.00 0.00 44 1012.1
20260903205625 98 170 2.6 7.0 0.00 0.00 0.00 44 1012.1
20260903205119 98 126 1.7 4.3 0.00 0.00 0.00 44 1012.1
20260903204844 98 145 1.7 4.3 0.00 0.00 0.00 45 1012.4
20260903204107 98 117 1.7 4.3 0.00 0.00 0.00 43 1012.2
20260903203601 99 117 1.7 5.2 0.00 0.00 0.00 43 1012.5
20260903203055 99 252 2.6 7.0 0.00 0.00 0.00 43 1012.6
20260903202549 98 251 2.6 7.0 0.00 0.00 0.00 44 1012.6
20260903202043 98 147 1.7 6.1 0.00 0.00 0.00 45 1012.5
20260903201537 98 161 1.7 6.1 0.00 0.00 0.00 44 1012.7
20260903201031 98 163 1.7 5.2 0.00 0.00 0.00 46 1012.7
20260903200524 98 113 1.7 6.1 0.00 0.00 0.00 47 1012.7
20260903200019 98 179 1.7 6.1 0.00 0.00 0.00 46 1012.8
20260903195744 98 108 1.7 6.1 0.00 0.00 0.00 47 1012.7
20260903195007 98 101 2.6 7.8 0.00 0.00 0.00 48 1012.9
20260903194501 97 112 2.6 7.8 0.00 0.00 0.00 49 1012.9
20260903193955 97 52 1.7 6.1 0.00 0.00 0.00 49 1013.0
20260903193449 97 152 2.6 6.1 0.00 0.00 0.00 49 1013.1
20260903192943 97 161 2.6 6.1 0.00 0.00 0.00 48 1013.2
20260903192708 96 101 1.7 6.1 0.00 0.00 0.00 51 1013.2
20260903192205 96 159 1.7 7.8 0.00 0.00 0.00 51 1013.3
20260903191435 96 130 1.7 7.8 0.00 0.00 0.00 51 1013.4
20260903190935 96 196 2.6 9.6 0.00 0.00 0.00 53 1013.5
20260903190435 96 138 1.7 9.6 0.00 0.00 0.00 52 1013.6
20260903185933 95 156 1.7 7.0 0.00 0.00 0.00 52 1013.7
20260903185433 95 151 2.6 7.0 0.00 0.00 0.00 53 1013.7
20260903184936 95 111 2.6 6.1 0.00 0.00 0.00 52 1013.9
20260903184431 95 92 1.7 7.8 0.00 0.00 0.00 52 1014.0
20260903183931 95 182 1.7 7.8 0.00 0.00 0.00 53 1014.0
20260903183701 94 213 2.6 8.7 0.00 0.00 0.00 54 1014.0
20260903182927 94 167 2.6 8.7 0.00 0.00 0.00 55 1014.2
20260903182425 94 154 1.7 6.1 0.00 0.00 0.00 55 1014.3
20260903181925 94 188 2.6 7.8 0.00 0.00 0.00 55 1014.4
20260903181425 94 161 2.6 7.8 0.00 0.00 0.00 57 1014.5
20260903180922 94 228 1.7 7.0 0.00 0.00 0.00 57 1014.5
20260903180423 94 173 2.6 8.7 0.00 0.00 0.00 57 1014.5
20260903175923 93 161 2.6 8.7 0.00 0.00 0.00 56 1014.7
20260903175420 93 150 2.6 8.7 0.00 0.00 0.00 58 1014.8
20260903174921 93 124 2.6 7.0 0.00 0.00 0.00 59 1014.8
20260903174421 93 193 2.6 7.0 0.00 0.00 0.00 59 1014.8
20260903174151 93 134 2.6 6.1 0.00 0.00 0.00 58 1014.9
20260903173423 92 150 2.6 6.1 0.00 0.00 0.00 58 1015.0
20260903172921 92 147 1.7 8.7 0.00 0.00 0.00 60 1015.0
20260903172421 92 204 1.7 8.7 0.00 0.00 0.00 61 1015.2
20260903171922 92 117 1.7 7.0 0.00 0.00 0.00 62 1015.2
20260903171421 92 196 1.7 5.2 0.00 0.00 0.00 62 1015.3
20260903171151 91 215 1.7 5.2 0.00 0.00 0.00 62 1015.3
20260903170651 91 235 1.7 6.1 0.00 0.00 0.00 61 1015.4
20260903165921 90 200 1.7 6.1 0.00 0.00 0.00 63 1015.5
20260903165421 90 197 2.6 7.0 0.00 0.00 0.00 65 1015.5
20260903164916 89 132 2.6 7.0 0.00 0.00 0.00 65 1015.6
20260903164649 89 203 2.6 6.1 0.00 0.00 0.00 65 1015.7
20260903163917 89 178 1.7 5.2 0.00 0.00 0.00 66 1015.6
20260903163417 89 240 1.7 6.1 0.00 0.00 0.00 69 1015.7
20260903162917 89 259 1.7 6.1 0.00 0.00 0.00 68 1015.7
20260903162417 89 200 1.7 6.1 0.00 0.00 0.00 67 1015.7
20260903161917 88 205 2.6 7.0 0.00 0.00 0.00 68 1015.7
20260903161417 88 146 2.6 8.7 0.00 0.00 0.00 70 1015.7
20260903160918 87 238 2.6 8.7 0.00 0.00 0.00 70 1015.7
20260903160412 87 169 1.7 7.0 0.00 0.00 0.00 71 1015.6
20260903155910 87 180 1.7 5.2 0.00 0.00 0.00 71 1015.6
20260903155411 87 202 1.7 5.2 0.00 0.00 0.00 70 1015.6
20260903154911 87 229 1.7 6.1 0.00 0.00 0.00 72 1015.6
20260903154411 87 165 1.7 6.1 0.00 0.00 0.00 72 1015.6
20260903153911 86 182 1.7 5.2 0.00 0.00 0.00 73 1015.7
20260903153411 85 187 1.7 7.0 0.00 0.00 0.00 74 1015.6
20260903152909 85 215 1.7 7.0 0.00 0.00 0.00 75 1015.7
20260903152409 85 238 1.7 5.2 0.00 0.00 0.00 75 1015.7
20260903151912 84 217 1.7 6.1 0.00 0.00 0.00 76 1015.7
20260903151406 84 204 1.7 6.1 0.00 0.00 0.00 77 1015.7
20260903150907 84 213 1.7 4.3 0.00 0.00 0.00 77 1015.6
20260903150407 84 213 0.9 5.2 0.00 0.00 0.00 77 1015.7
20260903145907 84 223 1.7 7.0 0.00 0.00 0.00 78 1015.7
20260903145407 83 182 2.6 7.0 0.00 0.00 0.00 78 1015.8
20260903144905 83 269 1.7 11.3 0.00 0.00 0.00 78 1015.7
20260903144404 83 219 1.7 11.3 0.00 0.00 0.00 79 1015.7
20260903143858 83 262 1.7 7.0 0.00 0.00 0.00 80 1015.7
20260903143352 83 244 1.7 7.0 0.00 0.00 0.00 80 1015.7
20260903143116 82 196 1.7 5.2 0.00 0.00 0.00 81 1015.7
20260903142340 82 213 0.9 4.3 0.00 0.00 0.00 81 1015.8
20260903141834 82 244 0.9 4.3 0.00 0.00 0.00 82 1015.8
20260903141328 81 248 1.7 6.1 0.00 0.00 0.00 82 1015.8
20260903140822 81 156 1.7 6.1 0.00 0.00 0.00 82 1015.8
20260903140315 81 174 1.7 8.7 0.00 0.00 0.00 84 1015.8
20260903135811 80 215 1.7 8.7 0.00 0.00 0.00 84 1015.8
20260903135306 80 208 1.7 5.2 0.00 0.00 0.00 85 1015.9
20260903135029 80 206 0.9 3.5 0.00 0.00 0.00 85 1016.0
20260903134252 80 216 0.9 4.3 0.00 0.00 0.00 86 1016.1
20260903133746 80 216 0.9 4.3 0.00 0.00 0.00 86 1016.0
20260903133240 80 242 0.9 4.3 0.00 0.00 0.00 86 1016.0
20260903132733 79 242 0.9 4.3 0.00 0.00 0.00 87 1016.0
20260903132500 79 181 0.9 3.5 0.00 0.00 0.00 87 1015.9
20260903131722 79 207 0.9 2.6 0.00 0.00 0.00 87 1015.9
20260903131447 79 210 0.9 3.5 0.00 0.00 0.00 88 1015.9
20260903130710 78 210 0.9 3.5 0.00 0.00 0.00 88 1015.9
20260903130204 78 212 0.9 2.6 0.00 0.00 0.00 88 1015.9
20260903125658 78 213 0.0 1.7 0.00 0.00 0.00 88 1015.8
20260903125152 78 213 0.0 1.7 0.00 0.00 0.00 88 1015.8
20260903124916 78 213 0.0 2.6 0.00 0.00 0.00 88 1015.6
20260903124140 78 213 0.0 2.6 0.00 0.00 0.00 89 1015.7
20260903123634 78 213 0.9 2.6 0.00 0.00 0.00 88 1015.6
20260903123128 78 213 0.0 2.6 0.00 0.00 0.00 88 1015.5
20260903122622 78 212 0.0 2.6 0.00 0.00 0.00 88 1015.5
20260903122116 78 212 0.9 2.6 0.00 0.00 0.00 88 1015.4
20260903121609 78 212 0.9 3.5 0.00 0.00 0.00 88 1015.3
20260903121104 78 212 0.9 3.5 0.00 0.00 0.00 88 1015.3
20260903120558 78 211 0.9 2.6 0.00 0.00 0.00 88 1015.3
20260903115546 78 212 0.0 4.3 0.00 0.00 0.00 87 1015.2
20260903114538 78 212 0.9 3.5 0.00 0.00 0.00 87 1015.3
20260903114038 78 214 0.9 3.5 0.00 0.00 0.00 87 1015.2
20260903113537 78 213 0.9 3.5 0.00 0.00 0.00 87 1015.2
20260903113034 78 213 0.9 3.5 0.00 0.00 0.00 87 1015.2
20260903112807 79 213 0.9 3.5 0.00 0.00 0.00 87 1015.3
20260903112034 79 213 0.9 3.5 0.00 0.00 0.00 86 1015.2
20260903111532 79 197 0.9 5.2 0.00 0.00 0.00 86 1015.2
20260903111030 79 221 1.7 6.1 0.00 0.00 0.00 86 1015.2
20260903110530 79 240 1.7 6.1 0.00 0.00 0.00 86 1015.2
20260903110029 79 281 1.7 6.1 0.00 0.00 0.00 86 1015.2
20260903105528 79 215 1.7 6.1 0.00 0.00 0.00 86 1015.3
20260903105259 79 235 1.7 6.1 0.00 0.00 0.00 86 1015.3
20260903104526 79 232 1.7 6.1 0.00 0.00 0.00 85 1015.3
20260903104026 79 210 0.9 5.2 0.00 0.00 0.00 85 1015.2
20260903103755 79 232 0.9 4.3 0.00 0.00 0.00 86 1015.2
20260903103026 79 234 0.9 4.3 0.00 0.00 0.00 86 1015.3
20260903102758 79 208 0.9 2.6 0.00 0.00 0.00 86 1015.3
20260903102027 79 209 0.9 3.5 0.00 0.00 0.00 86 1015.3
20260903101525 79 221 0.9 3.5 0.00 0.00 0.00 86 1015.3
20260903101025 79 226 0.9 2.6 0.00 0.00 0.00 86 1015.2
20260903100522 79 226 0.9 7.0 0.00 0.00 0.00 86 1015.2